Starlink 31676

operational
NORAD ID: 59900 Int'l Des: 2024-100 Owner: SPXS Country: US Constellation: starlink
LEOCIRCULAR

关于 Starlink 31676

正在加载描述...

实时位置

正在加载3D地球...

即将过境

高度历史

Altitude vs Time

uPlot chart will show altitude changes over time

两行轨道根数

1 59900U 24100R 26095.35245423 -.00001847 00000-0 -57638-4 0 9995
2 59900 43.0017 334.9022 0000595 22.5610 337.5268 15.27579449105124
Epoch: Apr 5, 2026 • Age: 14 hours

当前状态

高度 481.8 km
速度 7.63 km/s
星下点 17.18°N, 176.15°E
发射日期 May 28, 2024
运行时间 1.8 years
类型 internet

技术详情

分类 Payload
质量 730.00 kg
干质量 700.00 kg
总质量 730.00 kg
长度 0.30 m
直径 4.10 m
跨度 29.00 m
形状 Box + pan
制造商 SPXS
平台类型 Starlink V2M
阶段状态 In Orbit
所有者/国家 SPXS/US

大型星座

Loading constellations...